Regional Weather Roundup
Issued by NWS

Home | Current Version | Previous Version | Graphics & Text | Print | Product List | Glossary On
Versions: 1 2 3 4 5 6 7 8 9 10 11 12 13 14 15 16 17 18 19 20 21 22 23 24 25 26 27 28 29 30 31 32 33 34 35 36 37 38 39 40 41 42 43 44 45 46 47 48 49 50
000
ASUS45 KCYS 300610
RWRWY

WYOMING REGIONAL WEATHER ROUNDUP
NATIONAL WEATHER SERVICE CHEYENNE WY
1200 AM MDT THU MAR 30 2017

NOTE:  "FAIR" INDICATES FEW OR NO CLOUDS BELOW 12,000 FEET
WITH NO SIGNIFICANT WEATHER AND/OR OBSTRUCTIONS TO VISIBILITY.

WYZ001-300700-
YELLOWSTONE NATIONAL PARK

CITY           SKY/WX    TMP DP  RH WIND       PRES   REMARKS
LK YELLOWSTONE   N/A     31  31 100 CALM      29.99F
6HR MIN TEMP:  31; 6HR MAX TEMP:  33; 6HR PCP:  0.08;

W YELLOWSTONE  NOT AVBL

$$
WYZ002>013-054>058-071-098>099-300700-
NORTHERN WYOMING

CITY           SKY/WX    TMP DP  RH WIND       PRES   REMARKS
JACKSON        CLOUDY    37  36  93 SW3       29.98F
CODY           CLOUDY    48  32  53 W13G23    29.88S
GREYBULL       FAIR      47  33  58 E5        29.83F
6HR MIN TEMP:  46; 6HR MAX TEMP:  60;

WORLAND        FAIR      42  37  82 SE5       29.84F
6HR MIN TEMP:  40; 6HR MAX TEMP:  59;

SHERIDAN       CLOUDY    45  35  68 S6        29.82F
6HR MIN TEMP:  38; 6HR MAX TEMP:  60;

BUFFALO        FAIR      44  30  57 NW9       29.85F
6HR MIN TEMP:  42; 6HR MAX TEMP:  58;

GILLETTE       FAIR      43  37  79 S13       29.85F
6HR MIN TEMP:  35; 6HR MAX TEMP:  59;

HULETT         FAIR      43  30  61 CALM      29.87F
NEWCASTLE      FAIR      39  34  81 SE13      29.90F WCI  32

$$
WYZ014>020-022>026-101>103-300700-
CENTRAL WYOMING

CITY           SKY/WX    TMP DP  RH WIND       PRES   REMARKS
BIG PINEY      CLOUDY    37  31  78 S3        30.03F
6HR MIN TEMP:  35; 6HR MAX TEMP:  50;

PINEDALE       CLOUDY    36  32  87 NW3       30.03F
DUBOIS         CLOUDY    37  30  75 N9        29.96F WCI  31
LANDER         FAIR      47  31  53 NW7       29.89F
6HR MIN TEMP:  45; 6HR MAX TEMP:  57;

RIVERTON       CLOUDY    50  31  48 NW18G28   29.88F
6HR MIN TEMP:  48; 6HR MAX TEMP:  58;

CASPER         FAIR      44  29  55 SW7       29.86F
6HR MIN TEMP:  37; 6HR MAX TEMP:  57;

DOUGLAS        FAIR      41  34  76 SE15      29.87F
6HR MIN TEMP:  36; 6HR MAX TEMP:  58;


$$
WYZ021-027>030-104>119-300700-
SOUTHERN WYOMING

CITY           SKY/WX    TMP DP  RH WIND       PRES   REMARKS
EVANSTON       CLOUDY    40  26  57 SW12      30.06F WCI  33
6HR MIN TEMP:  38; 6HR MAX TEMP:  49;

KEMMERER         N/A     34  30  86 SW8       30.05F WCI  27
ROCK SPRINGS   FAIR      42  30  62 W14       30.02F
6HR MIN TEMP:  41; 6HR MAX TEMP:  52;

DIXON            N/A     35  28  73 CALM      30.06F
RAWLINS        FAIR      40  28  62 W22       29.97S WCI  30
6HR MIN TEMP:  40; 6HR MAX TEMP:  51;

SARATOGA       FAIR      34  28  80 CALM      30.00F
LARAMIE        FAIR      33  24  69 SW10      29.95F WCI  25
6HR MIN TEMP:  29; 6HR MAX TEMP:  48;

CHEYENNE       FAIR      37  33  85 SW13      29.95F WCI  29
6HR MIN TEMP:  36; 6HR MAX TEMP:  52;

TORRINGTON     FAIR      39  36  89 SE6       29.92F WCI  35
6HR MIN TEMP:  37; 6HR MAX TEMP:  61;

PINE BLUFFS    FAIR      32  32 100 SW8       29.97S WCI  25

$$



USA.gov is the U.S. government's official web portal to all federal, state and local government web resources and services.